Temperature
15 15 15 15 15 15 15 15 14 14 14 14 14 14 14 14 14 14 14 13 13 13 13 13 13 13 13 13 12 12 12 12 12 12 11 11 11 11 11 11 11 11 10
15 15 15 15 15 15 15 14 14 14 14 14 14 14 14 14 14 14 14 13 13 13 13 13 13 13 13 12 12 12 12 12 12 11 11 11 11 11 11 11 11 10 10
15 15 15 15 15 14 14 14 14 14 14 14 14 14 14 14 14 13 13 13 13 13 13 13 13 13 12 12 12 12 12 12 11 11 11 11 11 11 11 11 11 11 10
15 15 15 15 14 14 14 14 14 14 14 14 14 14 13 13 13 13 13 13 13 13 13 13 13 13 12 12 12 12 12 12 11 11 11 11 11 11 11 11 11 10 10
15 14 15 14 14 14 14 14 14 14 14 14 13 13 13 13 13 13 13 13 13 13 13 13 13 12 12 12 12 12 12 11 11 11 11 11 11 11 11 11 10 10 10
14 14 14 14 14 14 14 14 14 14 14 13 13 13 13 13 13 13 13 13 12 12 12 12 12 12 12 12 12 12 12 11 11 11 11 11 11 11 11 10 10 10 10
14 14 14 14 14 13 13 13 13 13 13 13 13 13 13 12 12 12 12 12 12 12 12 12 12 12 12 12 12 12 12 11 11 11 11 11 11 11 10 10 10 10 10
13 13 13 13 13 13 13 13 13 13 13 13 13 12 12 12 12 12 12 12 12 12 12 12 12 12 12 12 11 11 11 11 11 11 11 11 10 10 10 10 10 9 9
13 12 12 12 12 12 12 12 12 12 12 12 12 12 12 12 12 12 12 11 11 11 11 11 11 11 11 11 11 11 11 11 11 11 10 10 10 10 10 9 9 9 9
12 12 12 12 12 12 12 12 12 12 12 12 12 11 11 11 11 11 11 11 11 11 11 11 11 11 11 11 11 11 11 11 11 10 10 10 10 10 9 9 9 9 9
11 11 11 11 11 11 11 11 11 11 11 11 11 11 11 11 11 11 11 11 11 11 11 10 10 10 10 10 10 10 10 10 10 10 10 10 10 9 9 9 9 9 9
11 11 11 10 10 11 11 11 11 11 11 11 11 11 11 11 11 11 10 10 10 10 10 10 10 10 10 10 10 10 10 9 9 9 9 9 9 9 9 9 9 9 8
10 10 10 10 10 10 10 10 10 10 10 10 10 10 10 10 10 10 10 10 10 10 10 10 10 10 9 9 9 9 9 9 9 9 9 9 9 9 9 8 8 8 8
10 10 10 9 10 10 10 9 10 10 9 10 10 10 10 10 10 10 10 9 9 9 9 9 9 9 9 9 9 9 9 9 8 8 8 8 8 8 8 8 8 8 8
9 9 9 9 9 9 9 9 9 9 9 9 9 9 9 9 9 9 9 9 9 9 9 9 9 9 9 9 9 8 8 8 8 8 8 8 8 8 8 8 8 8 8
8 8 8 8 8 8 8 8 8 8 8 8 8 8 8 8 9 8 8 8 8 8 8 8 8 8 8 8 8 8 8 8 8 8 7 7 7 7 7 7 7 7 7
8 8 8 7 8 8 8 7 8 8 8 8 8 8 8 8 8 8 8 8 8 8 8 8 8 8 8 8 7 7 7 7 7 7 7 7 7 7 7 7 7 7 6
7 7 7 7 7 7 7 7 7 7 7 7 7 7 7 7 7 7 7 7 7 7 7 7 7 7 7 7 7 7 7 7 7 7 7 6 6 6 6 6 6 6 6
7 7 6 6 6 6 6 6 6 6 6 6 6 7 7 7 7 7 7 7 7 7 7 7 6 6 6 6 6 6 6 6 6 6 6 6 6 6 6 6 6 6 6
6 6 6 6 6 6 6 5 5 5 5 5 5 6 6 6 6 6 6 6 6 6 6 6 6 6 6 6 6 6 6 6 6 6 6 5 5 5 5 5 5 5 5
6 5 5 5 5 5 5 5 5 5 5 5 5 5 5 5 5 5 5 5 5 5 5 5 5 5 5 5 5 5 5 5 5 5 5 5 5 5 5 5 5 5 4
5 5 5 5 5 4 4 4 4 4 4 4 4 4 4 4 4 4 4 4 5 5 5 5 5 5 5 5 5 5 5 5 5 5 5 5 4 4 4 4 4 4 4
4 4 4 4 4 4 4 4 4 4 4 3 3 4 4 4 4 4 4 4 4 4 4 4 4 4 4 4 4 4 4 4 4 4 4 4 4 4 4 4 4 4 4
4 4 4 4 4 3 3 3 3 3 3 3 3 3 3 3 3 3 3 3 3 3 4 4 4 4 4 4 4 4 4 4 4 4 4 4 4 4 4 4 3 3 3
4 4 3 3 3 3 3 3 3 3 3 3 3 3 3 3 3 3 3 3 3 3 3 3 3 3 3 3 3 3 3 3 3 3 3 3 3 3 3 3 3 3 3
3 3 3 3 3 3 2 2 2 2 2 2 2 2 2 2 2 2 2 2 2 2 2 3 3 3 3 3 3 3 3 3 3 3 3 3 3 3 3 3 3 3 3
Wind_Speed
3 3 3 3 4 4 4 4 4 3 3 4 4 4 4 4 4 4 4 4 3 3 2 3 3 2 2 2 3 3 3 3 3 1 1 1 0 0 1 1 0 1 1
3 3 3 3 3 4 4 4 4 4 3 3 3 4 4 4 4 4 4 4 4 4 4 3 3 3 3 3 3 3 3 3 4 2 1 1 1 1 0 0 1 1 1
2 2 2 3 4 4 5 4 4 4 3 3 3 4 4 4 4 4 5 4 5 5 4 5 4 4 4 3 4 4 3 3 3 3 2 1 0 0 1 1 1 1 1
2 2 2 3 3 4 4 4 4 4 4 4 4 5 5 4 4 4 5 5 4 4 4 5 5 6 6 6 5 5 4 4 3 3 2 1 1 0 1 0 1 1 1
2 2 2 3 2 2 2 3 3 3 4 4 4 4 4 4 5 5 5 5 4 4 4 4 5 6 7 6 5 6 6 5 4 3 2 1 2 1 2 2 2 0 1
2 3 2 1 1 1 2 2 3 3 3 3 4 4 4 5 6 7 6 5 4 4 4 4 4 5 6 7 7 8 9 7 6 5 4 4 4 4 3 3 2 1 2
2 2 1 1 2 2 1 1 3 3 3 3 4 4 4 5 7 7 8 5 5 5 5 4 3 3 4 4 6 7 8 9 9 7 6 7 6 6 5 4 4 3 3
1 2 1 1 2 2 1 2 2 2 2 3 4 4 4 5 7 7 7 5 4 4 5 5 5 5 4 5 4 3 4 6 7 6 7 7 7 6 7 6 5 3 0
1 2 3 2 2 2 3 3 2 2 2 2 3 3 4 5 5 6 5 3 3 4 4 4 5 5 6 6 5 4 4 4 6 8 8 8 8 9 9 5 4 3 2
3 3 3 2 3 4 4 3 2 2 3 2 2 3 4 4 5 5 5 3 3 3 3 3 6 6 6 7 6 6 5 5 3 3 4 5 5 7 10 8 7 5 3
3 3 2 2 3 3 3 2 2 2 2 2 2 3 3 4 5 5 5 4 4 4 3 3 4 6 7 7 7 6 8 5 3 4 3 2 2 3 5 7 7 6 5
1 2 2 2 2 2 1 2 1 2 2 2 2 3 3 3 4 5 6 6 5 4 4 4 4 6 6 6 5 6 6 4 2 2 3 3 3 4 4 6 8 8 7
1 2 2 2 2 1 1 2 1 1 1 2 2 3 3 3 3 5 5 6 6 4 4 5 5 5 5 4 5 5 4 2 3 3 4 4 4 4 3 3 4 5 4
1 2 2 2 2 2 1 1 2 2 2 2 3 3 3 3 2 2 2 3 3 3 3 3 3 3 3 3 3 3 3 3 3 4 4 3 1 1 2 3 3 3 2
2 2 2 2 2 2 2 2 3 3 4 4 4 3 3 4 5 4 3 3 3 4 2 1 1 1 1 1 1 2 2 2 3 3 3 3 3 3 2 2 2 3 4
1 2 2 2 1 1 2 3 4 4 4 4 3 3 3 5 5 4 5 5 4 4 3 2 3 3 4 4 4 3 3 4 4 4 4 4 4 4 4 2 2 4 5
2 2 2 2 2 2 2 2 3 4 3 4 4 4 5 5 5 4 5 4 4 4 3 4 4 4 4 4 4 4 5 5 4 4 4 4 4 4 4 4 4 4 5
2 3 2 2 2 2 2 2 2 3 3 4 4 5 5 5 5 4 3 2 2 3 3 4 5 5 5 5 5 5 5 4 4 4 5 5 4 4 4 5 5 6 6
2 2 2 2 2 2 2 2 2 3 3 4 4 4 4 4 4 3 2 2 3 4 4 4 5 5 4 5 5 5 5 5 5 5 5 5 5 5 5 5 5 6 6
2 3 3 2 2 2 2 2 2 2 3 3 4 4 3 2 2 2 3 3 3 4 4 4 4 4 4 5 5 4 4 5 5 5 5 5 5 5 6 6 6 5 6
2 2 3 2 2 2 2 2 2 3 3 3 4 4 4 3 3 4 3 3 4 4 5 5 4 4 4 4 4 4 5 5 5 5 5 5 6 6 6 6 6 6 6
1 2 2 2 2 2 2 2 2 3 3 4 4 4 5 3 3 3 4 4 4 4 4 4 4 4 4 4 4 4 4 5 5 5 5 5 5 6 6 6 6 6 6
2 2 2 2 2 3 3 3 3 3 3 4 4 3 3 3 3 3 3 3 3 3 3 3 3 3 4 4 4 4 5 6 5 5 5 5 5 6 6 6 7 7 7
2 3 3 3 3 3 3 3 3 3 4 3 3 3 3 4 4 4 4 3 3 3 4 4 4 5 6 5 5 6 6 6 6 5 6 6 6 6 6 6 7 7 7
2 3 3 3 3 3 4 4 4 4 4 4 4 4 4 4 4 4 4 4 4 4 5 5 4 5 6 7 6 7 8 8 7 5 5 5 6 6 6 7 6 6 7
3 3 3 3 3 4 4 4 5 5 5 5 5 5 5 4 5 4 4 4 4 4 4 5 6 6 6 7 8 9 9 9 8 7 5 4 5 6 6 6 7 7 7
Wind_Direction
189 201 199 201 205 200 202 212 211 203 199 198 197 189 194 196 190 186 192 185 190 203 195 186 206 182 174 172 159 157 164 157 179 255 259 303 296 16 49 50 355 308 337
195 193 205 208 204 205 214 217 209 203 203 202 195 193 201 199 189 186 195 191 196 207 210 198 214 188 188 181 173 180 184 178 167 193 231 243 245 241 202 13 338 310 267
175 177 197 210 210 216 223 221 212 205 204 202 195 203 208 202 194 199 199 198 202 209 207 206 213 189 203 196 187 189 191 180 162 167 196 203 238 357 53 14 9 353 302
160 166 197 224 227 224 220 217 213 202 203 209 211 214 210 200 199 203 201 204 207 212 213 211 207 199 206 198 193 192 180 168 159 160 172 190 203 235 132 165 346 343 311
170 187 226 238 238 232 223 220 216 213 219 214 212 220 213 205 211 205 201 202 206 216 221 220 216 212 210 198 193 187 177 174 170 172 185 179 199 196 212 196 196 287 309
194 212 223 220 220 239 238 220 211 217 223 214 216 219 221 229 226 211 199 198 202 209 220 227 230 224 225 216 209 194 185 182 186 186 195 204 219 210 184 179 168 156 270
217 227 216 210 221 233 246 235 230 224 212 218 222 216 225 238 232 220 211 196 200 209 212 216 230 226 213 208 217 213 207 208 199 188 192 211 209 203 179 178 188 191 217
272 283 267 238 246 246 222 234 242 231 218 225 230 223 226 244 239 230 219 201 205 214 214 213 217 227 211 190 183 194 213 220 218 210 209 216 211 195 187 188 186 178 244
274 273 270 248 242 239 237 243 241 223 234 232 232 225 230 253 245 229 209 192 209 226 228 221 217 222 217 193 173 188 220 245 231 222 229 229 221 203 180 150 154 166 222
274 269 266 248 237 235 234 237 234 219 228 234 246 239 233 246 249 231 209 189 207 227 235 234 231 226 220 202 189 189 214 237 220 219 228 235 217 203 192 184 182 186 194
284 282 291 274 254 248 245 241 218 208 212 226 247 262 255 253 252 238 216 198 207 213 227 239 239 230 224 217 207 205 222 222 201 201 210 216 201 196 199 197 192 191 198
296 293 287 283 274 284 256 259 231 190 198 227 254 281 278 272 260 248 230 219 206 198 222 231 231 226 223 221 219 226 223 210 180 185 200 215 216 219 217 206 205 207 213
307 294 284 285 283 261 234 232 238 208 214 235 236 257 275 279 269 257 243 233 218 209 220 221 224 219 214 217 220 216 203 183 179 196 218 230 229 222 202 198 206 208 223
270 277 281 272 290 296 267 232 225 228 238 248 246 252 263 270 268 265 253 236 223 223 232 229 230 225 218 219 218 215 207 199 200 213 224 236 226 202 210 205 208 204 219
259 279 284 276 274 288 293 265 244 238 230 232 243 238 244 263 265 250 228 222 208 204 185 174 180 182 194 213 215 210 204 204 214 217 217 222 219 216 226 213 208 204 214
261 279 273 266 268 270 281 309 298 271 274 267 258 247 249 251 270 258 246 241 228 201 177 188 210 211 213 216 217 225 222 219 220 217 217 219 220 222 224 215 207 209 224
239 257 264 266 259 257 260 266 296 313 294 277 278 276 272 274 267 259 253 241 219 186 196 215 220 221 222 219 218 220 227 226 216 215 220 221 220 220 220 220 219 225 234
251 266 267 257 254 252 253 261 266 282 305 310 293 277 273 270 263 259 250 221 220 204 213 223 229 227 224 223 225 227 230 223 216 218 221 222 217 218 224 226 223 225 233
247 259 255 249 251 252 258 260 267 273 278 292 309 305 286 271 263 253 216 226 231 234 232 233 234 232 229 227 227 226 223 223 220 215 219 219 217 218 226 230 230 233 234
255 267 268 252 243 247 250 256 265 270 274 278 285 297 303 279 269 261 244 236 237 245 242 239 239 236 233 231 230 226 224 225 221 220 221 220 219 219 226 229 231 234 236
260 271 277 273 257 251 248 256 266 266 271 275 277 281 284 265 257 253 254 250 247 247 245 240 235 233 232 227 226 227 226 230 227 225 225 224 222 224 228 230 232 236 241
246 256 257 258 261 265 265 260 264 268 270 275 285 287 283 269 268 260 256 256 254 253 247 238 235 230 225 221 220 224 231 236 234 229 229 229 230 230 229 231 234 238 240
245 252 261 266 264 269 271 269 267 271 274 272 276 279 281 275 267 271 270 261 255 255 252 244 245 247 240 235 227 221 225 233 235 231 231 232 233 234 231 233 236 240 242
253 251 254 258 261 261 264 270 270 269 271 274 278 278 273 275 275 273 273 273 265 257 256 250 243 245 245 246 243 235 235 238 233 228 228 232 236 239 237 235 237 239 240
255 257 254 248 249 255 263 269 271 271 270 270 270 272 272 272 277 277 275 269 269 267 261 256 255 255 253 250 248 246 244 237 234 231 226 230 236 240 241 241 244 246 245
258 260 261 257 253 253 256 261 265 267 267 268 268 268 268 266 268 271 269 270 273 272 273 265 262 263 269 265 257 251 246 239 234 230 226 230 237 241 242 242 244 243 244
Height
1529 1530 1532 1532 1534 1535 1536 1537 1538 1539 1539 1540 1541 1541 1542 1542 1543 1544 1544 1545 1545 1546 1546 1547 1547 1547 1548 1548 1548 1548 1548 1548 1548 1549 1549 1548 1548 1548 1547 1547 1547 1547 1547
1527 1528 1529 1530 1531 1532 1533 1534 1535 1536 1537 1537 1538 1539 1539 1540 1541 1541 1542 1543 1543 1544 1544 1545 1545 1545 1546 1546 1546 1546 1547 1547 1547 1547 1547 1547 1547 1547 1547 1547 1546 1546 1546
1525 1525 1526 1527 1528 1529 1530 1531 1532 1532 1533 1534 1535 1536 1537 1537 1538 1538 1539 1540 1540 1541 1542 1542 1543 1543 1543 1544 1544 1544 1545 1545 1545 1545 1545 1545 1545 1545 1545 1545 1545 1545 1545
1523 1523 1524 1524 1525 1526 1526 1527 1528 1529 1530 1531 1532 1532 1533 1534 1535 1535 1536 1537 1537 1538 1539 1539 1540 1540 1541 1541 1541 1542 1542 1542 1543 1543 1543 1543 1543 1543 1543 1543 1543 1544 1544
1521 1521 1521 1522 1522 1523 1523 1524 1525 1526 1527 1527 1528 1529 1529 1530 1531 1531 1532 1533 1533 1534 1535 1536 1536 1537 1538 1538 1538 1539 1539 1539 1540 1540 1540 1540 1541 1541 1541 1541 1541 1541 1541
1518 1518 1519 1519 1520 1520 1520 1520 1521 1522 1523 1523 1524 1525 1526 1526 1527 1528 1528 1529 1529 1530 1531 1532 1533 1533 1534 1535 1535 1536 1536 1537 1537 1537 1537 1537 1537 1538 1538 1539 1539 1538 1538
1515 1515 1516 1516 1516 1517 1517 1518 1518 1518 1519 1519 1520 1521 1521 1522 1523 1523 1524 1525 1525 1526 1527 1527 1528 1529 1530 1531 1532 1532 1533 1533 1534 1534 1534 1534 1534 1535 1535 1535 1536 1536 1536
1513 1513 1513 1513 1513 1514 1514 1514 1514 1515 1515 1515 1516 1517 1517 1518 1519 1519 1520 1520 1521 1521 1522 1523 1524 1525 1526 1527 1527 1528 1529 1529 1530 1530 1530 1531 1531 1532 1532 1533 1533 1533 1533
1510 1510 1510 1510 1510 1511 1511 1511 1511 1511 1511 1512 1512 1513 1513 1514 1515 1515 1516 1516 1516 1517 1518 1519 1520 1521 1522 1523 1523 1523 1524 1525 1525 1526 1526 1527 1527 1528 1528 1528 1528 1529 1528
1507 1507 1507 1507 1507 1507 1507 1507 1507 1508 1508 1508 1508 1509 1509 1510 1510 1511 1511 1512 1512 1512 1513 1514 1515 1516 1517 1518 1518 1519 1519 1520 1521 1521 1521 1522 1522 1523 1523 1524 1524 1524 1524
1504 1504 1504 1504 1504 1504 1504 1504 1503 1504 1504 1504 1504 1505 1505 1506 1506 1507 1507 1507 1508 1508 1508 1509 1510 1511 1512 1513 1513 1514 1514 1515 1515 1516 1516 1517 1518 1518 1518 1519 1520 1520 1520
1501 1501 1501 1500 1501 1501 1500 1500 1500 1499 1499 1500 1500 1500 1501 1501 1501 1502 1502 1503 1504 1504 1504 1505 1506 1507 1508 1508 1508 1509 1510 1510 1510 1510 1511 1511 1512 1513 1513 1514 1515 1515 1516
1498 1498 1497 1497 1497 1497 1497 1496 1496 1496 1496 1495 1495 1495 1496 1496 1497 1497 1497 1498 1499 1499 1499 1501 1502 1503 1503 1503 1504 1504 1505 1505 1505 1505 1505 1506 1507 1508 1508 1509 1509 1510 1510
1494 1494 1494 1494 1493 1493 1493 1492 1492 1492 1492 1491 1491 1491 1491 1492 1492 1492 1492 1493 1494 1494 1495 1496 1497 1498 1498 1499 1499 1499 1500 1500 1500 1500 1500 1501 1502 1502 1503 1503 1504 1504 1504
1491 1491 1490 1490 1490 1489 1488 1488 1488 1488 1488 1487 1487 1487 1487 1487 1487 1488 1488 1488 1489 1490 1490 1491 1491 1492 1493 1493 1494 1494 1494 1495 1495 1495 1495 1496 1496 1496 1497 1497 1498 1498 1498
1487 1487 1486 1486 1485 1485 1484 1484 1483 1484 1483 1483 1482 1483 1482 1483 1483 1483 1484 1484 1484 1485 1485 1485 1486 1486 1487 1487 1488 1488 1489 1489 1489 1490 1490 1490 1490 1491 1491 1492 1492 1492 1492
1484 1483 1483 1482 1481 1481 1480 1480 1479 1478 1478 1478 1478 1478 1478 1478 1478 1478 1478 1479 1479 1479 1479 1479 1480 1481 1481 1482 1482 1483 1483 1484 1484 1484 1484 1485 1485 1485 1485 1486 1486 1486 1486
1480 1479 1479 1479 1478 1477 1476 1476 1475 1474 1473 1472 1473 1473 1473 1472 1472 1473 1473 1473 1473 1473 1474 1474 1474 1475 1476 1476 1476 1477 1477 1478 1478 1478 1479 1479 1479 1479 1479 1480 1480 1480 1480
1476 1476 1475 1475 1474 1473 1473 1472 1471 1470 1469 1468 1468 1468 1468 1467 1467 1467 1467 1467 1467 1467 1468 1468 1469 1469 1470 1470 1471 1471 1472 1472 1472 1472 1473 1473 1473 1473 1473 1474 1474 1474 1474
1472 1472 1471 1470 1470 1469 1468 1468 1467 1466 1465 1464 1463 1463 1462 1462 1461 1461 1461 1461 1462 1462 1462 1462 1463 1463 1464 1464 1464 1465 1465 1465 1466 1466 1466 1467 1467 1467 1467 1467 1467 1468 1467
1468 1468 1467 1466 1465 1465 1464 1464 1463 1462 1461 1459 1459 1458 1458 1457 1456 1456 1456 1456 1456 1456 1456 1457 1457 1457 1457 1458 1458 1458 1459 1459 1459 1459 1460 1460 1461 1461 1461 1461 1461 1461 1461
1464 1463 1463 1462 1461 1461 1460 1459 1459 1457 1456 1455 1454 1454 1453 1452 1451 1451 1451 1451 1451 1451 1451 1451 1451 1451 1451 1451 1452 1452 1452 1453 1453 1453 1454 1454 1454 1454 1454 1454 1454 1455 1454
1460 1459 1458 1458 1457 1456 1456 1455 1454 1453 1452 1451 1450 1449 1448 1447 1447 1446 1446 1446 1445 1445 1445 1445 1445 1445 1445 1445 1446 1446 1446 1446 1447 1447 1447 1447 1447 1447 1447 1447 1447 1448 1448
1455 1455 1454 1453 1452 1452 1451 1450 1449 1448 1447 1446 1445 1444 1444 1443 1442 1442 1441 1441 1440 1440 1440 1439 1439 1439 1439 1439 1439 1440 1440 1440 1440 1440 1441 1440 1440 1440 1440 1440 1440 1441 1441
1451 1450 1449 1449 1448 1447 1446 1445 1444 1443 1442 1441 1440 1439 1438 1438 1437 1436 1436 1435 1435 1434 1434 1434 1434 1433 1433 1433 1433 1433 1433 1434 1434 1434 1434 1434 1433 1433 1433 1433 1434 1434 1434
1446 1446 1445 1444 1443 1442 1441 1440 1439 1438 1437 1436 1435 1434 1433 1432 1431 1431 1430 1430 1429 1428 1428 1428 1428 1427 1427 1427 1427 1427 1427 1427 1428 1428 1427 1427 1427 1426 1426 1426 1426 1426 1426